Back to catalog

STARLINK-6082

AliveCommunicationsVLEO
NORAD 56110·PAYLOAD·🇺🇸 United States

Launched Mar 29, 2023 from Cape Canaveral Space Force Station

Loading…

Next Passes (next 24 hours)

TLE

FreshSource: CelesTrak SupGP

Epoch: Sep 14, 2026, 13:59 UTC

1 56110C 23046T   26257.58312500 -.00000979  00000+0 -35453-4 0  2571
2 56110  43.0028 174.9623 0001156 265.4763 256.5222 15.27573062    13

Track STARLINK-6082 in real time with AllMySat

Download on the App Store